Tracking 19709 objects as of 18-Jun-2019
HD Live streaming from Space Station
objects crossing your sky now

SL-8 R/B

Track SL-8 R/B now!
10-day predictions


NORAD ID: 21108
Int'l Code: 1991-009J
Perigee: 1,466.0 km
Apogee: 1,746.8 km
Inclination: 74.1 °
Period: 118.2 minutes
Semi major axis: 7977 km
RCS: 5.6696 m2 (large)
Launch date: February 12, 1991
Source: Commonwealth of Independent States (former USSR) (CIS)
Launch site: PLESETSK MISSILE AND SPACE COMPLEX (PKMTR)

Note: This is a ROCKET BODY
aabbcc
Your satellite tracking list
Your tracking list is empty




NASA's NSSDC Master Catalog

Two Line Element Set (TLE):
1 21108U 91009J   19168.53003701 -.00000003 +00000-0 +10847-3 0  9992
2 21108 074.0511 201.7448 0175989 341.4581 125.6249 12.18465762154239
Source of the keplerian elements: AFSPC